Regional Weather Roundup
Issued by NWS San Diego, CA

Home | Current Version | Previous Version | Text Only | Print | Product List | Glossary On
Versions: 1 2 3 4 5 6 7 8 9 10 11 12 13 14 15 16 17 18 19 20 21 22 23 24 25 26 27 28 29 30 31 32 33 34 35 36 37 38 39 40 41 42 43 44 45 46 47 48 49 50
275
ASUS46 KSGX 310011
RWRSGX

SAN DIEGO HOURLY WEATHER ROUNDUP
NATIONAL WEATHER SERVICE SAN DIEGO CA
500 PM PDT THU MAR 30 2017

NOTE: "FAIR" INDICATES FEW OR NO CLOUDS BELOW 12,000 FEET WITH NO
SIGNIFICANT WEATHER AND/OR OBSTRUCTIONS TO VISIBILITY.

CAZ042-043-060-061-PZZ750-775-310100-

GREATER SAN DIEGO AREA

CITY           SKY/WX    TMP DP  RH WIND       PRES   REMARKS
SAN DIEGO AP   PTSUNNY   64  53  67 S12       29.86F
NATIONAL CITY    N/A     65  56  73 SW12      29.86F
CHULA VISTA      N/A     65  57  76 SW6       29.78F
IMPERIAL BEACH PTSUNNY   63  54  72 S12G22    29.86F
BROWN FIELD    SUNNY     65  55  70 S9        29.85F
MIRAMAR MCAS   PTSUNNY   67  54  63 S9        29.84F
MONTGOMERY FLD PTSUNNY   63  52  67 S12       29.85F

$$

NORTH SAN DIEGO COUNTY

CITY           SKY/WX    TMP DP  RH WIND       PRES   REMARKS
CAMP PENDLETON CLOUDY    63  56  78 S13       29.82F
OCEANSIDE AP   CLOUDY    63  57  81 SW15G23   29.82F
OCEANSIDE HBR    N/A     60  57  89 NW14      29.84F
VISTA            N/A     63  55  77 SW2       29.81F
CARLSBAD       CLOUDY    62  55  77 S13       29.83F
DEL MAR          N/A     61  56  83 SW6       29.87F
LA JOLLA SCRIP   N/A     62  56  81 SE13      29.84F
FALLBROOK        N/A     66  58  75 S9        29.79F
ESCONDIDO        N/A     67  55  64 SW9       29.82F
SAN MARCOS       N/A     62  54  75 W14       29.84F
POWAY            N/A     69  55  59 SE3       29.85F

$$

EAST SAN DIEGO COUNTY

CITY           SKY/WX    TMP DP  RH WIND       PRES   REMARKS
RAMONA         SUNNY     64  55  72 S13       29.82F
SANTEE LAKES     N/A     66  55  67 SW2       29.83F
LA MESA          N/A     65  54  69 SW3       29.77F
JAMUL            N/A     64  55  72 CALM      29.84F
DESCANSO N       N/A     60  46  59 SW6       29.75F
CAMPO            N/A     64  46  52 SW22      29.81F

$$

ORANGE COUNTY AND THE LOS ANGELES BASIN

CITY           SKY/WX    TMP DP  RH WIND       PRES   REMARKS
JOHN WAYNE AP  PTSUNNY   63  55  75 SW14G24   29.80F
LAGUNA BEACH     N/A     64  58  82 S5        29.77F
LAKE FOREST FR   N/A     65  50  58 SW5       29.68F
HUNTINGTON BCH   N/A     67  59  76 SW10      29.80F
LOS ALAMITOS   SUNNY     64  56  73 S12       29.78F
FULLERTON      SUNNY     66  56  70 S12G23    29.77F
LONG BEACH     SUNNY     69  51  52 W12G17    29.77F
L.A. AP        MOSUNNY   64  52  64 W30G37    29.78F
L.A. DOWNTOWN  SUNNY     66  52  60 W7        29.78F

$$

THE INLAND EMPIRE

CITY           SKY/WX    TMP DP  RH WIND       PRES   REMARKS
CORONA         SUNNY     68  50  52 SW15G31   29.74F
CHINO          MOSUNNY   69  53  56 SW17G26   29.76F
ONTARIO        MOSUNNY   68  50  52 SW14G24   29.75F
SAN BERNARDINO PTSUNNY   70  43  37 MISG      29.77S
RIVERSIDE AP   MOSUNNY   69  49  48 W20G29    29.76S
MORENO VALLEY    N/A     72  49  42 NW9       27.88F
MARCH ARB      SUNNY     70  44  40 W15G24    29.75F
HORSETHIEF CYN   N/A     67  44  43 NW12      29.76S
PERRIS           N/A     72  49  45 S9        29.77F
HEMET EAST       N/A     68  42  38 SW7       29.78F
FRENCH VALLEY  FAIR      63  50  63 S15G24    29.80R
TEMECULA         N/A     67  55  64 SW12      29.81F

$$

SAN BERNARDINO AND RIVERSIDE COUNTY MOUNTAINS

CITY           SKY/WX    TMP DP  RH WIND       PRES   REMARKS
BIG BEAR AP    PTSUNNY   45  32  61 W26G38    29.79F
ANGELUS OAKS     N/A     49  37  61 SW5       29.62F
PINE COVE        N/A     51  40  67 SW1       29.70F

$$

SOUTHERN DESERT INCLUDING THE COACHELLA VALLEY

CITY           SKY/WX    TMP DP  RH WIND       PRES   REMARKS
PALM SPRINGS     N/A     83  35  18 W35G51    29.47F
PALM DESERT      N/A     86  28  12 NW13      29.42F
THERMAL        MOSUNNY   88  30  12 NW20G32   29.49F
BLYTHE         PTSUNNY   89  31  12 SW36G45   29.49F HAZE
IMPERIAL AP    SUNNY     87  42  20 SW28G35   29.57F
EL CENTRO NAS  MOSUNNY   87  37  17 SW25G32   29.60F
YUMA AZ        SUNNY     91  29  11 SW24      29.56
MEXICALI       SUNNY     90  27  10 W25       29.60

$$

UPPER DESERT

CITY           SKY/WX    TMP DP  RH WIND       PRES   REMARKS
VICTORVILLE AP SUNNY     61  23  23 W40G60    29.77F
HESPERIA         N/A     60  34  37 NW14      29.82S
PALMDALE       MOSUNNY   61  21  21 W40G52    29.82F HAZE
LANCASTER      SUNNY     61  20  20 W38G46    29.84F
EDWARDS AFB    MOSUNNY   63  13  14 W33G45    29.80R
DAGGETT        NOT AVBL
29 PALMS N     BLWGDUST  72  34  24 NW38G53   29.66F VSB 3/4
NEEDLES        PTSUNNY   84  37  18 NW30G43   29.45R

$$

REGIONAL REPORTS

CITY           SKY/WX    TMP DP  RH WIND       PRES   REMARKS
SANTA BARBARA  SUNNY     73  37  27 W20G30    29.82S
SANDBERG       SUNNY     51  25  36 N31G41    29.92F
LAS VEGAS NV   LGT RAIN  57  31  37 NW35G55   29.56R
PHOENIX AZ     MOSUNNY   88  20   8 S22G29    29.55F
TIJUANA        SUNNY     64  50  59 SW6       29.89F
ENSENADA NW      N/A     64  32  30 SW6       29.87F

$$

OFFSHORE ISLANDS

CITY           SKY/WX    TMP DP  RH WIND       PRES   REMARKS
CATALINA ARPT  MOSUNNY   57  50  77 W18       29.83F HAZE
SAN CLEMENTE I MOSUNNY   61  50  67 W25G39    29.85F
SAN NICOLAS IS SUNNY    N/A N/A N/A NW35G49   29.86F

$$

MARINE AND OFFSHORE BUOY REPORTS

STATION/POSITION SKY/WX   TEMP    WIND        PRES    VSBY  SWELL
                          AIR SEA DIR/SP/G                  HT/PER/DIR
                          (F)     (DEG/KT/KT) (MB)    (MI)  (FT/S/D)
TANNER BANKS               57 58  310/ 25/ 31 1012.9F        10/320/15
S CLEMENTE BASIN           59 60  300/ 17/ 21 1011.2F         7/300/ 9
SAN NICOLAS IS.               56                N/A           8/290/14
SO. S. ROSA ISLA           56 55  310/ 27/ 33 1012.8F        10/310/ 9
W. S. BARBARA CH           55 54  330/ 23/ 31 1013.7F        10/310/ 9
M. S. BARBARA CH                                N/A           5/290/12
S. MONICA BASIN            60 60  280/ 23/ 29 1009.0F         3/270/15
S PEDRO CHANNEL               60                N/A           3/270/15
CMP PENDLETON NS              61                N/A           2/230/15
OCEANSIDE OFFSHR              62                N/A           2/230/14
TORREY PINES OTR              62                N/A           3/280/15
POINT LOMA SOUTH              63                N/A           5/280/15

$$





USA.gov is the U.S. government's official web portal to all federal, state and local government web resources and services.